This is the latest recevied weather packets stored in our database for station/object KC5TIL-3. If no packets are shown the sender has not sent any weather packets the latest 10 day(s).
| Time | Temp. | Humidity | Pressure | Rain* | Wind** | Luminosity | Snow |
|---|---|---|---|---|---|---|---|
| 1787722510 | 32.22° C | 15% | 1011.8 hPa | 0 mm | 3.58 m/s, 225° | - | - |
| 1787722212 | 32.22° C | 15% | 1010.8 hPa | 0 mm | 3.13 m/s, 218° | - | - |
| 1787721906 | 32.22° C | 14% | 1010.8 hPa | 0 mm | 3.58 m/s, 211° | - | - |
| 1787721603 | 32.22° C | 14% | 1010.8 hPa | 0 mm | 4.02 m/s, 189° | - | - |
| 1787721305 | 32.22° C | 14% | 1010.8 hPa | 0 mm | 3.13 m/s, 206° | - | - |
| 1787721004 | 32.78° C | 14% | 1010.8 hPa | 0 mm | 3.13 m/s, 234° | - | - |
| 1787720705 | 32.78° C | 14% | 1010.8 hPa | 0 mm | 3.58 m/s, 185° | - | - |
| 1787720407 | 32.78° C | 14% | 1010.8 hPa | 0 mm | 2.68 m/s, 176° | - | - |
| 1787720106 | 32.78° C | 14% | 1010.8 hPa | 0 mm | 2.68 m/s, 198° | - | - |
| 1787719808 | 32.78° C | 12% | 1010.8 hPa | 0 mm | 2.24 m/s, 196° | - | - |
| 1787719509 | 32.78° C | 12% | 1010.8 hPa | 0 mm | 3.13 m/s, 190° | - | - |
| 1787719208 | 33.33° C | 12% | 1010.8 hPa | 0 mm | 4.02 m/s, 184° | - | - |
| 1787718910 | 33.33° C | 12% | 1010.8 hPa | 0 mm | 4.02 m/s, 197° | - | - |
| 1787718612 | 33.33° C | 12% | 1010.8 hPa | 0 mm | 3.13 m/s, 239° | - | - |
| 1787718310 | 33.33° C | 12% | 1010.8 hPa | 0 mm | 3.58 m/s, 212° | - | - |
| 1787718012 | 33.33° C | 12% | 1010.8 hPa | 0 mm | 3.13 m/s, 211° | - | - |
| 1787717714 | 33.33° C | 12% | 1010.8 hPa | 0 mm | 2.68 m/s, 163° | - | - |
| 1787717413 | 33.33° C | 12% | 1010.8 hPa | 0 mm | 2.68 m/s, 200° | - | - |
| 1787717109 | 33.33° C | 12% | 1010.8 hPa | 0 mm | 2.24 m/s, 195° | - | - |
| 1787716811 | 33.33° C | 12% | 1010.8 hPa | 0 mm | 3.13 m/s, 220° | - | - |
| 1787716505 | 33.33° C | 12% | 1010.8 hPa | 0 mm | 2.24 m/s, 202° | - | - |
| 1787716207 | 33.33° C | 11% | 1010.8 hPa | 0 mm | 3.13 m/s, 164° | - | - |
| 1787715909 | 33.33° C | 11% | 1010.8 hPa | 0 mm | 3.13 m/s, 195° | - | - |
| 1787715607 | 33.33° C | 11% | 1010.8 hPa | 0 mm | 3.13 m/s, 203° | - | - |
| 1787715309 | 33.33° C | 11% | 1010.8 hPa | 0 mm | 2.24 m/s, 158° | - | - |
* Rain latest hour (hover to see other rain measurements)
** Current wind speed in m/s (hover to see current wind gust speed)